Regional Weather Roundup
Issued by NWS

Home | Current Version | Previous Version | Text Only | Print | Product List | Glossary Off
Versions: 1 2 3 4 5 6 7 8 9 10 11 12 13 14 15 16 17 18 19 20 21 22 23 24 25 26 27 28 29 30 31 32 33 34 35 36 37 38 39 40 41 42 43 44 45 46 47 48 49 50

000
ASUS45 KCYS 280310
RWRWY

WYOMING REGIONAL WEATHER ROUNDUP
NATIONAL WEATHER SERVICE CHEYENNE WY
900 PM MDT MON APR 27 2015

NOTE:  "FAIR" INDICATES FEW OR NO CLOUDS BELOW 12,000 FEET
WITH NO SIGNIFICANT WEATHER AND/OR OBSTRUCTIONS TO VISIBILITY.

WYZ001-280400-
YELLOWSTONE NATIONAL PARK

CITY           SKY/WX    TMP DP  RH WIND       PRES   REMARKS
LK YELLOWSTONE   N/A     33  26  75 W3        30.34R
W YELLOWSTONE  NOT AVBL

$$
WYZ002>013-054>058-071-098>099-280400-
NORTHERN WYOMING

CITY           SKY/WX    TMP DP  RH WIND       PRES   REMARKS
JACKSON        FAIR      46  30  53 N6        30.27R
CODY           CLOUDY    50  36  57 SE3       30.29S
GREYBULL       FAIR      51  33  50 S7        30.27R
WORLAND        FAIR      46  35  65 CALM      30.28S
SHERIDAN       FAIR      42  36  79 S6        30.29S
BUFFALO        FAIR      43  35  73 S6        30.32S
GILLETTE       FAIR      37  33  85 SW5       30.31R WCI  33
HULETT         FAIR      37  34  87 E5        30.34S WCI  34
NEWCASTLE      CLOUDY    46  36  66 NW7       30.32S

$$
WYZ014>020-022>026-101>103-280400-
CENTRAL WYOMING

CITY           SKY/WX    TMP DP  RH WIND       PRES   REMARKS
BIG PINEY      FAIR      45  34  65 S5        30.28R
PINEDALE       FAIR      43  36  75 E10       30.29R
DUBOIS         FAIR      37  32  81 SE7       30.31R WCI  32
LANDER         FAIR      43  34  70 S5        30.30R
RIVERTON       FAIR      46  35  65 SW3       30.31R
CASPER         CLOUDY    43  36  76 NE6       30.33R
DOUGLAS        CLOUDY    44  38  79 N7        30.34R

$$
WYZ021-027>030-104>119-280400-
SOUTHERN WYOMING

CITY           SKY/WX    TMP DP  RH WIND       PRES   REMARKS
EVANSTON       FAIR      45  31  58 E6        30.27R
KEMMERER       FAIR      45  32  61 SE5       30.29R
FORT BRIDGER   CLEAR     48  30  49 CALM      30.31R
ROCK SPRINGS   FAIR      41  34  76 NE12      30.29R
DIXON          FAIR      44  36  72 N8        30.27R
RAWLINS        FAIR      40  32  73 NE13      30.31R WCI  32
SARATOGA       FAIR      41  34  75 CALM      30.29R
LARAMIE        CLOUDY    38  32  79 E7        30.32R WCI  33
CHEYENNE       CLOUDY    41  37  86 N5        30.33R
TORRINGTON     CLOUDY    46  40  79 N7        30.31R
PINE BLUFFS    CLOUDY    43  39  87 N8        30.32R

$$


USA.gov is the U.S. government's official web portal to all federal, state and local government web resources and services.